星链-2190 (STARLINK-2190 )

导读

STARLINK-2190是美国SpaceX公司星链(Starlink)星座的卫星,于2021年5月15日发射升空。星链计划旨在构建全球卫星互联网,为地面网络覆盖不足区域提供高速互联网服务。作为星链星座的组成部分,该卫星运行于近地轨道,助力星座组网,支撑全球范围的宽带接入服务,是SpaceX推进大规模卫星互联网部署中的一环。

基本信息
目录编号:
48564
目录名称:
STARLINK-2190
国际标识:
2021-041M
轨道中心:
EARTH
卫星名称:
星链-2190
卫星全名:
星链-2190 (STARLINK-2190 )
卫星状态:
在轨 (已飞行1938 天)
发射日期:
2021-05-15 UTC
国别 :
美国 (US)
星等 :
--
轨道信息
数据来源 国际轨道数据
星历时间: 2026-09-04T08:30:28+0800
7小时前
查看轨道信息
半长轴: 6848.866km
偏心率: 0.000119
轨道倾角: 53.160°
近地点辐角 90.902°
升交点赤经 16.815°
平近点角 269.212°
近地点: 469.913km
远地点: 471.545km
周期: 94.013分钟
每日圈数: 15.31704
详细信息
固有亮度:
5
最大亮度:
2.5
卫星平台:
Starlink V1.0
覆盖范围:
全球
运营商:
太空探索技术公司
运营商所在国:
美国
制造商(研发单位):
太空探索技术公司
制造商所在国:
美国
使用方式:
暂无
卫星简介
星链(Starlink)计划是由太空探索技术公司(SpaceX)提出的一个巨型低轨卫星互联网星座项目,计划在2019年至2024年间在太空搭建由约1.2万颗卫星组成的“星链”网络,其中1584颗将部署在地球上空550千米处的近地轨道,并从2020年开始工作。该卫星仍在工作。
2D轨道图
3D轨道图
轨道高度分析图
轨道倾角分析图
轨道综合分析图
查看轨道综合分析图